Starlink 35876

operational
NORAD ID: 67180 Int'l Des: 2025-303 Owner: SPXS Country: US Constellation: starlink
LEOCIRCULAR

Über Starlink 35876

Beschreibung wird geladen...

Live-Position

3D-Globus wird geladen...

Nächste Überflüge

Höhenverlauf

Altitude vs Time

uPlot chart will show altitude changes over time

Zweizeiliger Elementsatz

1 67180C 25303T 25352.76854167 .00690530 00000+0 10139-2 0 3527
2 67180 43.0050 61.7772 0007413 284.9798 269.9212 16.03320251 13
Epoch: 18. Dez. 2025 • Age: 58 hours

Aktueller Status

Höhe 258.9 km
Geschwindigkeit 7.76 km/s
Subsatellitenpunkt 22.79°N, 163.07°W
Startdatum 17. Dez. 2025
Alter 2 days
Typ internet

Technische Details

Klassifizierung Payload
Masse 575.00 kg
Trockenmasse 530.00 kg
Gesamtmasse 575.00 kg
Länge 0.30 m
Durchmesser 4.10 m
Spannweite 29.00 m
Form Box + pan
Hersteller SPXS
Bus-Typ Starlink V2MO
Phasenstatus In Orbit
Besitzer/Staat SPXS/US

Große Konstellationen

Loading constellations...